TFRFD BIRK-BIVM

Flight info

Callsign TFRFD
Flight time 0h 38m
Altitude 5500
Route SOUTH EAST ALONG COASTLINE
Aircraft C208/L-SDFGR/C

Departure

Time 2026-05-06 11:58
Airport Reykjavík Domestic Airport (BIRK)

Arrival

Time 2026-05-06 12:37
Airport Vestmannaeyjar Airport (BIVM)
Time Latitude Longitude Altitude Speed Heading
2026-05-06 11:42 64.13124 -21.93481 46 ft 0 kts 358°
2026-05-06 11:53 64.13147 -21.93470 46 ft 7 kts 54°
2026-05-06 11:53 64.13098 -21.93460 46 ft 11 kts 224°
2026-05-06 11:53 64.13079 -21.93534 46 ft 0 kts 243°
2026-05-06 11:54 64.13044 -21.93562 46 ft 12 kts 180°
2026-05-06 11:54 64.12957 -21.93571 46 ft 11 kts 179°
2026-05-06 11:54 64.12909 -21.93520 46 ft 0 kts 141°
2026-05-06 11:55 64.12909 -21.93519 46 ft 1 kts 141°
2026-05-06 11:55 64.12861 -21.93503 43 ft 15 kts 175°
2026-05-06 11:55 64.12726 -21.93475 39 ft 21 kts 175°
2026-05-06 11:55 64.12590 -21.93451 37 ft 18 kts 176°
2026-05-06 11:56 64.12470 -21.93428 32 ft 17 kts 174°
2026-05-06 11:56 64.12361 -21.93407 31 ft 15 kts 176°
2026-05-06 11:56 64.12267 -21.93390 28 ft 12 kts 174°
2026-05-06 11:56 64.12190 -21.93416 27 ft 11 kts 205°
2026-05-06 11:57 64.12125 -21.93528 23 ft 11 kts 233°
2026-05-06 11:57 64.12134 -21.93614 26 ft 2 kts
2026-05-06 11:57 64.12171 -21.93615 25 ft 13 kts 355°
2026-05-06 11:57 64.12405 -21.93662 30 ft 56 kts 354°
2026-05-06 11:58 64.12895 -21.93771 106 ft 80 kts
2026-05-06 11:58 64.13472 -21.93888 315 ft 87 kts 346°
2026-05-06 11:58 64.13772 -21.95103 657 ft 103 kts 275°
2026-05-06 11:58 64.13365 -21.96593 877 ft 118 kts 220°
2026-05-06 11:59 64.12701 -21.97792 1149 ft 124 kts 216°
2026-05-06 11:59 64.11969 -21.98966 1389 ft 132 kts 207°
2026-05-06 11:59 64.11100 -21.99690 1678 ft 133 kts 192°
2026-05-06 11:59 64.10275 -22.00757 1892 ft 143 kts 223°
2026-05-06 12:00 64.09598 -22.02462 2140 ft 145 kts 229°
2026-05-06 12:00 64.08914 -22.04194 2358 ft 150 kts 229°
2026-05-06 12:00 64.08175 -22.06004 2477 ft 160 kts 226°
2026-05-06 12:00 64.07370 -22.07891 2481 ft 170 kts 226°
2026-05-06 12:01 64.06543 -22.09874 2514 ft 175 kts 227°
2026-05-06 12:01 64.05696 -22.11915 2504 ft 179 kts 227°
2026-05-06 12:01 64.04737 -22.13700 2513 ft 179 kts 199°
2026-05-06 12:01 64.03951 -22.14231 2514 ft 178 kts 191°
2026-05-06 12:02 64.02739 -22.14884 2497 ft 176 kts 188°
2026-05-06 12:02 64.01565 -22.15477 2491 ft 175 kts 187°
2026-05-06 12:02 64.00358 -22.16039 2484 ft 174 kts 186°
2026-05-06 12:02 63.99186 -22.16545 2480 ft 174 kts 186°
2026-05-06 12:03 63.98001 -22.17082 2465 ft 174 kts 186°
2026-05-06 12:03 63.96817 -22.17633 2467 ft 173 kts 186°
2026-05-06 12:03 63.95636 -22.18147 2468 ft 172 kts 187°
2026-05-06 12:03 63.94474 -22.18131 2472 ft 164 kts 157°
2026-05-06 12:04 63.93376 -22.17439 2463 ft 164 kts 156°
2026-05-06 12:04 63.92287 -22.16687 2476 ft 163 kts 155°
2026-05-06 12:04 63.91202 -22.15904 2488 ft 164 kts 154°
2026-05-06 12:04 63.90112 -22.15167 2472 ft 163 kts 154°
2026-05-06 12:05 63.89052 -22.14432 2582 ft 157 kts 155°
2026-05-06 12:05 63.88010 -22.13752 2656 ft 157 kts 154°
2026-05-06 12:05 63.86990 -22.13081 2841 ft 147 kts 148°
2026-05-06 12:05 63.86166 -22.11974 3009 ft 127 kts 119°
2026-05-06 12:06 63.85680 -22.10382 3196 ft 121 kts 113°
2026-05-06 12:06 63.85230 -22.08779 3352 ft 122 kts 111°
2026-05-06 12:06 63.84769 -22.07121 3422 ft 127 kts 111°
2026-05-06 12:06 63.84313 -22.05352 3446 ft 133 kts 111°
2026-05-06 12:07 63.83839 -22.03513 3460 ft 137 kts 110°
2026-05-06 12:07 63.83344 -22.01640 3455 ft 139 kts 110°
2026-05-06 12:07 63.82857 -21.99731 3460 ft 140 kts 110°
2026-05-06 12:07 63.82376 -21.97791 3457 ft 142 kts 109°
2026-05-06 12:08 63.81883 -21.95852 3458 ft 142 kts 111°
2026-05-06 12:08 63.81401 -21.93891 3449 ft 143 kts 110°
2026-05-06 12:08 63.80920 -21.91918 3450 ft 143 kts 109°
2026-05-06 12:08 63.80433 -21.89946 3451 ft 144 kts 110°
2026-05-06 12:09 63.79934 -21.87993 3451 ft 143 kts 111°
2026-05-06 12:09 63.79573 -21.85943 3458 ft 138 kts 96°
2026-05-06 12:09 63.79410 -21.83826 3455 ft 136 kts 90°
2026-05-06 12:09 63.79300 -21.81706 3453 ft 136 kts 88°
2026-05-06 12:10 63.79213 -21.79579 3452 ft 136 kts 88°
2026-05-06 12:10 63.79142 -21.77434 3448 ft 137 kts 88°
2026-05-06 12:10 63.79073 -21.75287 3445 ft 136 kts 87°
2026-05-06 12:10 63.79001 -21.73152 3447 ft 136 kts 87°
2026-05-06 12:11 63.78923 -21.71032 3449 ft 135 kts 87°
2026-05-06 12:11 63.78854 -21.68901 3449 ft 136 kts 87°
2026-05-06 12:11 63.78785 -21.66762 3450 ft 137 kts 87°
2026-05-06 12:11 63.78724 -21.64608 3450 ft 138 kts 88°
2026-05-06 12:12 63.78661 -21.62452 3448 ft 137 kts 88°
2026-05-06 12:12 63.78597 -21.60307 3447 ft 136 kts 87°
2026-05-06 12:12 63.78520 -21.58187 3448 ft 135 kts 88°
2026-05-06 12:12 63.78449 -21.56076 3448 ft 135 kts 86°
2026-05-06 12:13 63.78377 -21.53966 3453 ft 135 kts 88°
2026-05-06 12:13 63.78311 -21.51841 3455 ft 136 kts 88°
2026-05-06 12:13 63.78241 -21.49707 3455 ft 136 kts 88°
2026-05-06 12:13 63.78173 -21.47564 3453 ft 137 kts 88°
2026-05-06 12:14 63.78101 -21.45427 3449 ft 136 kts 88°
2026-05-06 12:14 63.78035 -21.43294 3451 ft 136 kts 86°
2026-05-06 12:14 63.77975 -21.41174 3448 ft 135 kts 88°
2026-05-06 12:14 63.77929 -21.39039 3448 ft 136 kts 86°
2026-05-06 12:15 63.77863 -21.36916 3447 ft 135 kts 88°
2026-05-06 12:15 63.77803 -21.34801 3445 ft 134 kts 88°
2026-05-06 12:15 63.77731 -21.32697 3447 ft 134 kts 87°
2026-05-06 12:15 63.77667 -21.30594 3443 ft 134 kts 87°
2026-05-06 12:16 63.77605 -21.28495 3441 ft 134 kts 88°
2026-05-06 12:16 63.77555 -21.26369 3438 ft 136 kts 86°
2026-05-06 12:16 63.77491 -21.24249 3438 ft 135 kts 88°
2026-05-06 12:16 63.77425 -21.22127 3442 ft 135 kts 88°
2026-05-06 12:17 63.77345 -21.20019 3443 ft 134 kts 87°
2026-05-06 12:17 63.77285 -21.17901 3439 ft 135 kts 87°
2026-05-06 12:17 63.77222 -21.15784 3437 ft 136 kts 88°
2026-05-06 12:17 63.77160 -21.13658 3441 ft 135 kts 86°
2026-05-06 12:18 63.77092 -21.11565 3434 ft 135 kts 88°
2026-05-06 12:18 63.77019 -21.09456 3433 ft 134 kts 88°
2026-05-06 12:18 63.76933 -21.07370 3433 ft 133 kts 87°
2026-05-06 12:18 63.76866 -21.05275 3437 ft 134 kts 89°
2026-05-06 12:19 63.76803 -21.03169 3438 ft 135 kts 88°
2026-05-06 12:19 63.76749 -21.01038 3447 ft 136 kts 91°
2026-05-06 12:19 63.76738 -20.98872 3437 ft 141 kts 88°
2026-05-06 12:19 63.76768 -20.96644 3447 ft 144 kts 88°
2026-05-06 12:20 63.76802 -20.94378 3439 ft 146 kts 88°
2026-05-06 12:20 63.76835 -20.92088 3438 ft 146 kts 88°
2026-05-06 12:20 63.76866 -20.89780 3437 ft 148 kts 88°
2026-05-06 12:20 63.76897 -20.87464 3436 ft 148 kts 88°
2026-05-06 12:21 63.76929 -20.85151 3432 ft 146 kts 88°
2026-05-06 12:21 63.76958 -20.82864 3427 ft 145 kts 88°
2026-05-06 12:21 63.76984 -20.80581 3433 ft 145 kts 88°
2026-05-06 12:21 63.77010 -20.78290 3432 ft 146 kts 88°
2026-05-06 12:22 63.77036 -20.75999 3438 ft 146 kts 88°
2026-05-06 12:22 63.77063 -20.73701 3444 ft 147 kts 88°
2026-05-06 12:22 63.77086 -20.71402 3440 ft 146 kts 88°
2026-05-06 12:22 63.77114 -20.69097 3438 ft 147 kts 88°
2026-05-06 12:23 63.77140 -20.66785 3426 ft 147 kts 88°
2026-05-06 12:23 63.77165 -20.64469 3431 ft 147 kts 88°
2026-05-06 12:23 63.77188 -20.62160 3432 ft 147 kts 88°
2026-05-06 12:23 63.77211 -20.59862 3442 ft 146 kts 88°
2026-05-06 12:24 63.77232 -20.57551 3437 ft 148 kts 88°
2026-05-06 12:24 63.77255 -20.55218 3440 ft 149 kts 88°
2026-05-06 12:24 63.77281 -20.52857 3430 ft 150 kts 88°
2026-05-06 12:24 63.77263 -20.50498 3426 ft 151 kts 101°
2026-05-06 12:25 63.76635 -20.48657 3421 ft 154 kts 144°
2026-05-06 12:25 63.75717 -20.47424 3424 ft 153 kts 147°
2026-05-06 12:25 63.74773 -20.46293 3425 ft 154 kts 149°
2026-05-06 12:25 63.73816 -20.45210 3423 ft 154 kts 150°
2026-05-06 12:26 63.72850 -20.44151 3422 ft 154 kts 150°
2026-05-06 12:26 63.71882 -20.43103 3417 ft 154 kts 151°
2026-05-06 12:26 63.70914 -20.42066 3412 ft 154 kts 151°
2026-05-06 12:26 63.69947 -20.41036 3408 ft 154 kts 151°
2026-05-06 12:27 63.68981 -20.40010 3412 ft 153 kts 151°
2026-05-06 12:27 63.68015 -20.38993 3415 ft 153 kts 151°
2026-05-06 12:27 63.67047 -20.37971 3418 ft 154 kts 151°
2026-05-06 12:27 63.66073 -20.36939 3364 ft 157 kts 151°
2026-05-06 12:28 63.65064 -20.35873 3181 ft 161 kts 151°
2026-05-06 12:28 63.64042 -20.34792 2993 ft 163 kts 151°
2026-05-06 12:28 63.63016 -20.33704 2801 ft 163 kts 151°
2026-05-06 12:28 63.61990 -20.32610 2615 ft 164 kts 151°
2026-05-06 12:29 63.60923 -20.31716 2423 ft 166 kts 168°
2026-05-06 12:29 63.59778 -20.31389 2231 ft 166 kts 172°
2026-05-06 12:29 63.58631 -20.31117 2052 ft 164 kts 172°
2026-05-06 12:29 63.57508 -20.30914 1854 ft 160 kts 172°
2026-05-06 12:30 63.56402 -20.30760 1661 ft 159 kts 173°
2026-05-06 12:30 63.55304 -20.30635 1517 ft 156 kts 173°
2026-05-06 12:30 63.54225 -20.30518 1455 ft 155 kts 173°
2026-05-06 12:30 63.53138 -20.30502 1419 ft 157 kts 174°
2026-05-06 12:31 63.52051 -20.30648 1405 ft 156 kts 174°
2026-05-06 12:31 63.50970 -20.30813 1396 ft 155 kts 174°
2026-05-06 12:31 63.49895 -20.30958 1399 ft 155 kts 173°
2026-05-06 12:31 63.48816 -20.31302 1398 ft 162 kts 190°
2026-05-06 12:32 63.47761 -20.32226 1417 ft 162 kts 196°
2026-05-06 12:32 63.46758 -20.33186 1459 ft 153 kts 197°
2026-05-06 12:32 63.45828 -20.34105 1490 ft 141 kts 196°
2026-05-06 12:32 63.44941 -20.34982 1473 ft 138 kts 191°
2026-05-06 12:33 63.44031 -20.35132 1439 ft 126 kts 160°
2026-05-06 12:33 63.43296 -20.34340 1429 ft 112 kts 129°
2026-05-06 12:33 63.42850 -20.33024 1288 ft 105 kts 107°
2026-05-06 12:33 63.42659 -20.31425 1024 ft 107 kts 93°
2026-05-06 12:34 63.42556 -20.29807 840 ft 108 kts 93°
2026-05-06 12:34 63.42150 -20.28504 835 ft 118 kts 154°
2026-05-06 12:34 63.41429 -20.29234 775 ft 123 kts 244°
2026-05-06 12:34 63.41059 -20.30883 825 ft 112 kts 244°
2026-05-06 12:35 63.40498 -20.31905 845 ft 103 kts 186°
2026-05-06 12:35 63.39891 -20.31439 859 ft 93 kts 119°
2026-05-06 12:35 63.39909 -20.30215 911 ft 83 kts 51°
2026-05-06 12:35 63.40424 -20.29545 826 ft 89 kts 25°
2026-05-06 12:36 63.40982 -20.29051 682 ft 82 kts 20°
2026-05-06 12:36 63.41506 -20.28664 510 ft 76 kts 19°
2026-05-06 12:36 63.41993 -20.28301 338 ft 73 kts 19°
2026-05-06 12:36 63.42434 -20.27969 315 ft 55 kts 19°
2026-05-06 12:37 63.42672 -20.27791 321 ft 17 kts 18°
2026-05-06 12:37 63.42725 -20.27739 318 ft 6 kts 293°
2026-05-06 12:37 63.42689 -20.27793 320 ft 9 kts 199°
2026-05-06 12:37 63.42605 -20.27853 319 ft 16 kts 197°
2026-05-06 12:38 63.42500 -20.27911 317 ft 15 kts 172°
2026-05-06 12:38 63.42463 -20.27769 321 ft 8 kts 105°
2026-05-06 12:38 63.42447 -20.27624 325 ft 11 kts 106°
2026-05-06 12:38 63.42420 -20.27448 333 ft 12 kts 112°
2026-05-06 12:39 63.42381 -20.27250 336 ft 12 kts 111°
2026-05-06 12:39 63.42392 -20.27118 335 ft 8 kts 27°
2026-05-06 12:39 63.42451 -20.27063 337 ft 9 kts 21°
2026-05-06 12:39 63.42499 -20.27020 337 ft 0 kts 22°